Regional Weather Roundup
Issued by NWS Cleveland, OH

Home | Current Version | Previous Version | Graphics & Text | Print | Product List | Glossary On
Versions: 1 2 3 4 5 6 7 8 9 10 11 12 13 14 15 16 17 18 19 20 21 22 23 24 25 26 27 28 29 30 31 32 33 34 35 36 37 38 39 40 41 42 43 44 45 46 47 48 49 50
000
ASUS41 KCLE 221610
RWRCLE
OHIO REGIONAL WEATHER ROUNDUP
NATIONAL WEATHER SERVICE WILMINGTON, OH
1100 AM EST MON JAN 22 2018

NOTE: "FAIR" INDICATES FEW OR NO CLOUDS BELOW 12,000 FEET WITH NO
SIGNIFICANT WEATHER AND/OR OBSTRUCTIONS TO VISIBILITY.

OHZ001>008-015>018-024>027-034-035-043-044-221700-
   NORTHWEST OHIO

CITY           SKY/WX    TMP DP  RH WIND       PRES   REMARKS
DEFIANCE       FAIR      53  43  68 S16G25    29.79R
FINDLAY        CLOUDY    54  44  69 S16       29.83R
TOLEDO EXPRESS PTSUNNY   52  47  83 S9G18     29.81R
TOLEDO EXEC    FAIR      54  46  74 S16       29.82F
LIMA           CLOUDY    54  46  74 S14       29.84R
$$

OHZ009>014-019>023-028>033-038-089-221700-
   NORTHEAST OHIO

CITY           SKY/WX    TMP DP  RH WIND       PRES   REMARKS
CLE-HOPKINS    CLOUDY    56  46  69 S16G22    29.92S
CLE-LAKEFRONT  PTSUNNY   54  45  71 S17G26    29.88F
CUY CO. ARPT   CLOUDY    55  34  44 S12G21    29.91F
LORAIN-ELYRIA  CLOUDY    50  42  74 S14       29.89S
ASHTABULA      CLOUDY    50  47  89 S14       29.94F
AKRON-CANTON   CLOUDY    52  45  77 S12       29.94F
WOOSTER        PTSUNNY   53  45  74 S14       29.92F
MANSFIELD      PTSUNNY   54  45  71 S17       29.88F
YOUNGSTOWN     CLOUDY    51  46  83 S12       29.96S
$$

OHZ042-051>053-060>062-070>072-077>081-221700-
  SOUTHWEST OHIO

CITY           SKY/WX    TMP DP  RH WIND       PRES   REMARKS
CINC-COVINGTON LGT RAIN  58  45  62 SW9       29.89R
CINC-LUNKEN    PTSUNNY   59  45  59 S15       29.88F
HAMILTON       LGT RAIN  55  46  71 SW6       29.90R
DAYTON         LGT RAIN  55  46  71 SW15      29.90R
WRIGHT-PAT AFB CLOUDY    56  40  55 S10       29.88R
DAYTON GENERAL CLOUDY    58  43  57 SW13      29.89R
WILMINGTON     FAIR      56  46  69 S15       29.88F
$$

OHZ036-037-039>041-045>050-054>059-063>069-073>076-082>088-221700-
  CENTRAL AND SOUTHEAST OHIO

CITY           SKY/WX    TMP DP  RH WIND       PRES   REMARKS
COLUMBUS       PTSUNNY   57  46  66 S10G21    29.89F
OSU AIRPORT    FAIR      55  47  74 S12       29.89F
BOLTON FIELD   SUNNY     54  46  76 S13       29.89F
RICKENBACK AFB FAIR      55  47  73 S13G20    29.88F
NEWARK         FAIR      55  46  71 S6        29.92F
MARION         FAIR      55  46  71 S16G28    29.87F
LANCASTER      FAIR      57  46  66 S14       29.92F
ZANESVILLE     FAIR      54  46  74 SE7       29.94F
NEW PHILLY     PTSUNNY   52  46  80 VRB3      29.96F
$$




USA.gov is the U.S. government's official web portal to all federal, state and local government web resources and services.